{"data":{"norad_id":38552,"intl_designator":"2012-035B","name":"METEOSAT-10 (MSG-3)","alt_names":[],"object_type":"PAYLOAD","status":"ACTIVE","operator":null,"country":"EUME","launch_date":"2012-07-05","launch_site_code":"FRGUI","launch_vehicle":null,"mission":null,"orbit_class":"UNKNOWN","rcs_meters":4.3946,"size_class":null,"mass_kg":null,"dimensions":null,"purposes":["comms","earth_obs"],"wikipedia_slug":null,"has_3d_model":false,"image_url":null,"decayed_at":null,"tle_current":{"epoch":"2026-09-20T01:31:32.103264Z","epoch_age_seconds":55859,"freshness":"FRESH","line1":"1 38552U 12035B   26263.06356601 -.00000009  00000+0  00000+0 0  9998","line2":"2 38552   4.8912  60.4816 0000923 101.5165 219.9177  1.00272682 51805","mean_motion":1.00272682,"eccentricity":9.23e-5,"inclination_deg":4.8912,"raan_deg":60.4816,"arg_perigee_deg":101.5165,"mean_anomaly_deg":219.9177,"bstar":0,"rev_number":5180,"period_min":1436.084057271,"perigee_km":35782.451719853,"apogee_km":35790.235282953,"semimajor_km":42164.480501403,"source":"CELESTRAK","updated_at":"2026-09-20T09:00:35.175714Z"}}}